Regional Weather Roundup
Issued by NWS San Diego, CA

Home | Current Version | Previous Version | Text Only | Print | Product List | Glossary On
Versions: 1 2 3 4 5 6 7 8 9 10 11 12 13 14 15 16 17 18 19 20 21 22 23 24 25 26 27 28 29 30 31 32 33 34 35 36 37 38 39 40 41 42 43 44 45 46 47 48 49 50
000
ASUS46 KSGX 191211
RWRSGX

SAN DIEGO HOURLY WEATHER ROUNDUP
NATIONAL WEATHER SERVICE SAN DIEGO CA
400 AM PST SUN NOV 19 2017

NOTE: "FAIR" INDICATES FEW OR NO CLOUDS BELOW 12,000 FEET WITH NO
SIGNIFICANT WEATHER AND/OR OBSTRUCTIONS TO VISIBILITY.

CAZ042-043-060-061-PZZ750-775-191300-

GREATER SAN DIEGO AREA

CITY           SKY/WX    TMP DP  RH WIND       PRES   REMARKS
SAN DIEGO AP   FOG       55  55 100 CALM      30.06R VSB 1/8
NATIONAL CITY    N/A     53  50  90 CALM      30.07S
CHULA VISTA      N/A     51  48  92 CALM      29.96S
IMPERIAL BEACH FOG       59  58  96 CALM      30.05R VSB 1/4
BROWN FIELD    FOG       53  53 100 CALM      30.04S VSB 1/4
MIRAMAR MCAS   CLEAR     52  43  71 E7        30.03S
MONTGOMERY FLD CLEAR     55  50  83 CALM      30.04R
GILLESPIE FLD  FAIR      46  39  76 CALM      30.04S

$$

NORTH SAN DIEGO COUNTY

CITY           SKY/WX    TMP DP  RH WIND       PRES   REMARKS
CAMP PENDLETON CLEAR     37  35  92 CALM      30.04S
OCEANSIDE AP   CLEAR     42  40  92 CALM      30.04R
OCEANSIDE HBR    N/A     49  44  82 CALM      30.06S
VISTA            N/A     54  37  51 CALM      30.01S
CARLSBAD       CLEAR     54  38  54 E5        30.03R
DEL MAR          N/A     53  52  97 CALM      30.05S
LA JOLLA SCRIP   N/A     55  54  96 NE1       30.03R
FALLBROOK        N/A     59  32  36 N3        30.05R
ESCONDIDO        N/A     48  38  68 CALM      30.06S
SAN MARCOS       N/A     58  36  44 CALM      30.06R

$$

EAST SAN DIEGO COUNTY

CITY           SKY/WX    TMP DP  RH WIND       PRES   REMARKS
RAMONA           N/A    N/A N/A N/A MISG      30.06R
LA MESA          N/A     55  40  56 NE3       29.98R
JAMUL            N/A     48  35  59 CALM      30.05R
DESCANSO N       N/A     43  27  53 NE3       30.02S
MT. LAGUNA OBS   N/A     51  -6   9 SE2       30.02R
CAMPO            N/A     41  26  55 NW6       30.07S

$$

ORANGE COUNTY AND THE LOS ANGELES BASIN

CITY           SKY/WX    TMP DP  RH WIND       PRES   REMARKS
JOHN WAYNE AP  CLEAR     53  49  86 NE3       30.04S
LAGUNA BEACH     N/A     47  45  93 CALM      29.99S
LAKE FOREST FR   N/A     56  32  39 NW2       29.93R
HUNTINGTON BCH   N/A     49  48  97 CALM      30.05F
LOS ALAMITOS   FAIR      47  46  94 CALM      30.03F
FULLERTON      CLEAR     50  32  50 CALM      30.03F
LONG BEACH     CLEAR     54  40  59 NW3       30.04F
L.A. AP        PTCLDY    58  24  27 NE5       30.04F
L.A. DOWNTOWN  CLEAR     58  25  28 NE3       30.05S

$$

THE INLAND EMPIRE

CITY           SKY/WX    TMP DP  RH WIND       PRES   REMARKS
CORONA         CLEAR     46  29  51 CALM      30.07S
CHINO          CLEAR     45  35  68 CALM      30.07S
ONTARIO        PTCLDY    49  29  46 E6        30.06S
SAN BERNARDINO FAIR      46  22  38 E6        30.08F
RIVERSIDE AP   CLEAR     52  25  35 NE5       30.07S
MORENO VALLEY    N/A     54  28  37 CALM      28.20S
MARCH ARB      CLEAR     39  22  50 NW6       30.08S WCI  35
HORSETHIEF CYN   N/A     53  18  24 CALM      30.08R
PERRIS           N/A     52  30  43 NE2         N/A
HEMET EAST       N/A     52  21  30 CALM      30.12R
FRENCH VALLEY  FAIR      45  30  57 NE6       30.08S
TEMECULA         N/A     48  37  66 NW1       30.14R

$$

SAN BERNARDINO AND RIVERSIDE COUNTY MOUNTAINS

CITY           SKY/WX    TMP DP  RH WIND       PRES   REMARKS
BIG BEAR AP    PTCLDY    18 -13  25 CALM      30.23S
ANGELUS OAKS     N/A     42   3  19 CALM      30.07R

$$

SOUTHERN DESERT INCLUDING THE COACHELLA VALLEY

CITY           SKY/WX    TMP DP  RH WIND       PRES   REMARKS
PALM SPRINGS   CLEAR     55  14  19 NW7       30.10S
THOUSAND PALMS   N/A     51  13  21 N1        30.05F
PALM DESERT      N/A     49  33  53 CALM      27.07S
THERMAL        CLEAR     40  27  59 NW6       30.05F
BLYTHE         CLEAR     48  10  21 SW7       30.09F
IMPERIAL AP    CLEAR     46  29  51 W5        30.06S
EL CENTRO NAS  CLEAR     47  24  40 W5        30.08S
YUMA AZ        CLEAR     58  13  17 N10       30.04F

$$

UPPER DESERT

CITY           SKY/WX    TMP DP  RH WIND       PRES   REMARKS
VICTORVILLE AP MOCLDY    28   9  43 CALM      30.19S
HESPERIA         N/A     35  14  42 W2        30.34S
PALMDALE       PTCLDY    34  13  41 CALM      30.19S
LANCASTER      PTCLDY    29   9  43 W5        30.20F WCI  24
EDWARDS AFB    PTCLDY    26   4  38 SW5       30.18S WCI  21
DAGGETT        PTCLDY    36   7  29 CALM      30.18S
29 PALMS N     PTCLDY    37   4  25 CALM      30.23S
NEEDLES        CLEAR     52  11  19 NW8       30.13S

$$

REGIONAL REPORTS

CITY           SKY/WX    TMP DP  RH WIND       PRES   REMARKS
SANTA BARBARA  CLEAR     42  39  89 CALM      30.07S
SANDBERG       CLEAR     47   9  21 E16       30.18F
LAS VEGAS NV   MOCLDY    42  11  28 S5        30.19F
PHOENIX AZ     PTCLDY    53  24  32 SW3       30.03S
TIJUANA        FOG       54  54 100 CALM      30.07S VSB 1/16
ENSENADA NW      N/A     59  32  36 CALM      29.96F

$$

OFFSHORE ISLANDS

CITY           SKY/WX    TMP DP  RH WIND       PRES   REMARKS
CATALINA ARPT  CLEAR     62  24  23 NW7       30.06F
SAN NICOLAS IS CLEAR     54  32  43 W16       30.06F

$$

MARINE AND OFFSHORE BUOY REPORTS

STATION/POSITION SKY/WX   TEMP    WIND        PRES    VSBY  SWELL
                          AIR SEA DIR/SP/G                  HT/PER/DIR
                          (F)     (DEG/KT/KT) (MB)    (MI)  (FT/S/D)
TANNER BANKS               60 63  240/ 14/ 17 1017.7F         3/340/10
S CLEMENTE BASIN           64 65  310/  8/ 10 1017.4R         3/300/ 5
SAN NICOLAS IS.               62                N/A           2/300/11
SO. S. ROSA ISLA           58 61  320/ 19/ 23 1018.0F         3/310/ 9
W. S. BARBARA CH           58 60  320/ 19/ 23 1018.2F         3/310/10
M. S. BARBARA CH           59 61  240/  4/  6 1018.9F         2/260/12
S. MONICA BASIN               65  340/ 16/ 17 1016.7F         2/140/13
S PEDRO CHANNEL               61                N/A           2/220/13
CMP PENDLETON NS              62                N/A           2/220/15
OCEANSIDE OFFSHR              62                N/A           2/210/13
TORREY PINES OTR              65                N/A           2/220/18
POINT LOMA SOUTH              63                N/A           2/240/12

$$





USA.gov is the U.S. government's official web portal to all federal, state and local government web resources and services.